Time,TemperatureF,DewpointF,PressureIn,WindDirection,WindDirectionDegrees,WindSpeedMPH,WindSpeedGustMPH,Humidity,HourlyPrecipIn,Conditions,Clouds,dailyrainin,SoftwareType,DateUTC
2013-05-18 00:01:00,61.6,60.7,29.94,SSE,161,0.0,0.0,97,0.00,,,0.00,WeatherCatV1.15B25,2013-05-18 05:01:00,
2013-05-18 00:06:00,61.6,60.7,29.94,SSE,161,0.0,0.0,97,0.00,,,0.00,WeatherCatV1.15B25,2013-05-18 05:06:00,
2013-05-18 00:11:00,61.7,60.8,29.94,SSE,161,1.0,1.0,97,0.00,,,0.00,WeatherCatV1.15B25,2013-05-18 05:11:00,
2013-05-18 00:16:00,61.8,60.9,29.94,SSE,161,0.0,0.0,97,0.00,,,0.00,WeatherCatV1.15B25,2013-05-18 05:16:00,
2013-05-18 00:21:00,61.9,61.0,29.94,SE,136,0.0,1.0,97,0.00,,,0.00,WeatherCatV1.15B25,2013-05-18 05:21:00,
2013-05-18 00:26:00,62.0,61.1,29.93,SE,138,0.0,2.0,97,0.00,,,0.00,WeatherCatV1.15B25,2013-05-18 05:26:00,
2013-05-18 00:31:00,62.2,61.6,29.94,SSE,167,2.0,2.0,98,0.00,,,0.00,WeatherCatV1.15B25,2013-05-18 05:31:00,
2013-05-18 00:36:00,62.3,61.7,29.94,SE,137,0.0,0.0,98,0.00,,,0.00,WeatherCatV1.15B25,2013-05-18 05:36:00,
2013-05-18 00:41:00,62.5,61.9,29.94,SE,137,0.0,0.0,98,0.00,,,0.00,WeatherCatV1.15B25,2013-05-18 05:41:00,
2013-05-18 00:46:00,62.6,62.0,29.94,SE,137,0.0,1.0,98,0.00,,,0.00,WeatherCatV1.15B25,2013-05-18 05:46:00,
2013-05-18 00:51:00,62.6,62.0,29.94,SE,137,0.0,0.0,98,0.00,,,0.00,WeatherCatV1.15B25,2013-05-18 05:51:00,
2013-05-18 00:56:00,62.7,62.1,29.93,SE,137,0.0,0.0,98,0.00,,,0.00,WeatherCatV1.15B25,2013-05-18 05:56:00,
2013-05-18 01:01:00,62.9,62.3,29.93,SE,137,0.0,1.0,98,0.00,,,0.00,WeatherCatV1.15B25,2013-05-18 06:01:00,
2013-05-18 01:06:00,63.0,62.4,29.93,SE,137,0.0,0.0,98,0.00,,,0.00,WeatherCatV1.15B25,2013-05-18 06:06:00,
2013-05-18 01:11:00,63.1,62.5,29.93,SE,137,0.0,1.0,98,0.00,,,0.00,WeatherCatV1.15B25,2013-05-18 06:11:00,
2013-05-18 01:16:00,63.2,62.6,29.93,SE,137,0.0,0.0,98,0.00,,,0.00,WeatherCatV1.15B25,2013-05-18 06:16:00,
2013-05-18 01:21:00,63.2,62.6,29.93,SE,137,0.0,1.0,98,0.00,,,0.00,WeatherCatV1.15B25,2013-05-18 06:21:00,
2013-05-18 01:26:00,63.3,62.7,29.93,SE,137,1.0,2.0,98,0.00,,,0.00,WeatherCatV1.15B25,2013-05-18 06:26:00,
2013-05-18 01:31:00,63.4,62.8,29.93,SE,137,0.0,1.0,98,0.00,,,0.00,WeatherCatV1.15B25,2013-05-18 06:31:00,
2013-05-18 01:36:00,63.6,63.0,29.93,SE,129,1.0,2.0,98,0.00,,,0.00,WeatherCatV1.15B25,2013-05-18 06:36:00,
2013-05-18 01:41:00,63.9,63.3,29.93,SSE,161,0.0,2.0,98,0.00,,,0.00,WeatherCatV1.15B25,2013-05-18 06:41:00,
2013-05-18 01:46:00,64.0,63.4,29.92,SSE,149,0.0,2.0,98,0.00,,,0.00,WeatherCatV1.15B25,2013-05-18 06:46:00,
2013-05-18 01:51:00,64.0,63.4,29.92,SE,127,1.0,2.0,98,0.00,,,0.00,WeatherCatV1.15B25,2013-05-18 06:51:00,
2013-05-18 01:56:00,64.0,63.4,29.92,SE,124,1.0,1.0,98,0.00,,,0.00,WeatherCatV1.15B25,2013-05-18 06:56:00,
2013-05-18 02:01:00,64.0,63.4,29.92,East,91,0.0,2.0,98,0.00,,,0.00,WeatherCatV1.15B25,2013-05-18 07:01:00,
2013-05-18 02:06:00,64.0,63.4,29.92,ESE,111,1.0,1.0,98,0.00,,,0.00,WeatherCatV1.15B25,2013-05-18 07:06:00,
2013-05-18 02:11:00,63.9,63.0,29.92,ESE,111,0.0,1.0,97,0.00,,,0.00,WeatherCatV1.15B25,2013-05-18 07:11:00,
2013-05-18 02:16:00,63.8,62.9,29.92,SE,144,3.0,3.0,97,0.00,,,0.00,WeatherCatV1.15B25,2013-05-18 07:16:00,
2013-05-18 02:21:00,63.7,62.8,29.92,ESE,111,0.0,2.0,97,0.00,,,0.00,WeatherCatV1.15B25,2013-05-18 07:21:00,
2013-05-18 02:26:00,63.8,62.9,29.92,ESE,112,0.0,1.0,97,0.00,,,0.00,WeatherCatV1.15B25,2013-05-18 07:26:00,
2013-05-18 02:31:00,63.8,62.9,29.92,East,92,0.0,1.0,97,0.00,,,0.00,WeatherCatV1.15B25,2013-05-18 07:31:00,
2013-05-18 02:36:00,63.8,62.9,29.92,SE,146,1.0,1.0,97,0.00,,,0.00,WeatherCatV1.15B25,2013-05-18 07:36:00,
2013-05-18 02:41:00,63.7,62.8,29.91,SE,142,0.0,2.0,97,0.00,,,0.00,WeatherCatV1.15B25,2013-05-18 07:41:00,
2013-05-18 02:46:00,63.7,62.8,29.91,SE,135,1.0,3.0,97,0.00,,,0.00,WeatherCatV1.15B25,2013-05-18 07:46:00,
2013-05-18 02:51:00,63.6,62.7,29.91,ESE,105,0.0,2.0,97,0.00,,,0.00,WeatherCatV1.15B25,2013-05-18 07:51:00,
2013-05-18 02:56:00,63.6,62.7,29.91,ESE,121,1.0,1.0,97,0.00,,,0.00,WeatherCatV1.15B25,2013-05-18 07:56:00,
2013-05-18 03:01:00,63.7,62.8,29.91,SE,139,1.0,2.0,97,0.00,,,0.00,WeatherCatV1.15B25,2013-05-18 08:01:00,
2013-05-18 03:06:00,63.6,62.7,29.91,ESE,121,0.0,1.0,97,0.00,,,0.00,WeatherCatV1.15B25,2013-05-18 08:06:00,
2013-05-18 03:11:00,63.6,62.7,29.91,SE,142,3.0,3.0,97,0.00,,,0.00,WeatherCatV1.15B25,2013-05-18 08:11:00,
2013-05-18 03:16:00,63.5,62.6,29.91,ESE,123,1.0,3.0,97,0.00,,,0.00,WeatherCatV1.15B25,2013-05-18 08:16:00,
2013-05-18 03:21:00,63.5,62.6,29.91,ESE,119,0.0,3.0,97,0.00,,,0.00,WeatherCatV1.15B25,2013-05-18 08:21:00,
2013-05-18 03:26:00,63.4,62.5,29.91,SSE,165,1.0,2.0,97,0.00,,,0.00,WeatherCatV1.15B25,2013-05-18 08:26:00,
2013-05-18 03:31:00,63.4,62.5,29.91,SE,134,0.0,1.0,97,0.00,,,0.00,WeatherCatV1.15B25,2013-05-18 08:31:00,
2013-05-18 03:36:00,63.4,62.8,29.91,ESE,119,1.0,3.0,98,0.00,,,0.00,WeatherCatV1.15B25,2013-05-18 08:36:00,
2013-05-18 03:41:00,63.3,62.4,29.91,SE,138,0.0,1.0,97,0.00,,,0.00,WeatherCatV1.15B25,2013-05-18 08:41:00,
2013-05-18 03:46:00,63.2,62.3,29.91,SE,130,0.0,0.0,97,0.00,,,0.00,WeatherCatV1.15B25,2013-05-18 08:46:00,
2013-05-18 03:51:00,63.2,62.3,29.91,SE,136,0.0,1.0,97,0.00,,,0.00,WeatherCatV1.15B25,2013-05-18 08:51:00,
2013-05-18 03:56:00,63.1,62.2,29.91,SE,136,2.0,2.0,97,0.00,,,0.00,WeatherCatV1.15B25,2013-05-18 08:56:00,
2013-05-18 04:01:00,63.0,62.1,29.91,SE,131,2.0,3.0,97,0.00,,,0.00,WeatherCatV1.15B25,2013-05-18 09:01:00,
2013-05-18 04:06:00,63.0,62.1,29.90,SE,139,1.0,3.0,97,0.00,,,0.00,WeatherCatV1.15B25,2013-05-18 09:06:00,
2013-05-18 04:11:00,62.9,62.3,29.90,SE,132,0.0,2.0,98,0.00,,,0.00,WeatherCatV1.15B25,2013-05-18 09:11:00,
2013-05-18 04:16:00,62.9,62.3,29.90,SE,133,1.0,3.0,98,0.00,,,0.00,WeatherCatV1.15B25,2013-05-18 09:16:00,
2013-05-18 04:21:00,63.0,62.4,29.90,ESE,115,0.0,2.0,98,0.00,,,0.00,WeatherCatV1.15B25,2013-05-18 09:21:00,
2013-05-18 04:26:00,63.0,62.4,29.90,SE,136,0.0,2.0,98,0.00,,,0.00,WeatherCatV1.15B25,2013-05-18 09:26:00,
2013-05-18 04:31:00,63.0,62.4,29.91,ESE,119,1.0,1.0,98,0.00,,,0.00,WeatherCatV1.15B25,2013-05-18 09:31:00,
2013-05-18 04:36:00,63.1,62.5,29.91,East,88,0.0,0.0,98,0.00,,,0.00,WeatherCatV1.15B25,2013-05-18 09:36:00,
2013-05-18 04:41:00,63.0,62.4,29.91,SE,130,0.0,0.0,98,0.00,,,0.00,WeatherCatV1.15B25,2013-05-18 09:41:00,
2013-05-18 04:46:00,63.0,62.4,29.91,East,93,0.0,0.0,98,0.00,,,0.00,WeatherCatV1.15B25,2013-05-18 09:46:00,
2013-05-18 04:51:00,62.9,62.3,29.91,SSE,166,0.0,0.0,98,0.00,,,0.00,WeatherCatV1.15B25,2013-05-18 09:51:00,
2013-05-18 04:56:00,62.9,62.3,29.92,SSE,166,0.0,1.0,98,0.00,,,0.00,WeatherCatV1.15B25,2013-05-18 09:56:00,
2013-05-18 05:01:00,62.8,62.2,29.92,SSE,166,0.0,0.0,98,0.00,,,0.00,WeatherCatV1.15B25,2013-05-18 10:01:00,
2013-05-18 05:06:00,62.7,62.1,29.92,SSE,166,0.0,0.0,98,0.00,,,0.00,WeatherCatV1.15B25,2013-05-18 10:06:00,
2013-05-18 05:11:00,62.5,61.9,29.92,SSE,166,0.0,0.0,98,0.00,,,0.00,WeatherCatV1.15B25,2013-05-18 10:11:00,
2013-05-18 05:16:00,62.4,61.8,29.92,SSE,166,0.0,0.0,98,0.00,,,0.00,WeatherCatV1.15B25,2013-05-18 10:16:00,
2013-05-18 05:21:00,62.3,61.7,29.92,SSE,166,0.0,0.0,98,0.00,,,0.00,WeatherCatV1.15B25,2013-05-18 10:21:00,
2013-05-18 05:26:00,62.2,61.6,29.92,SSE,166,0.0,0.0,98,0.00,,,0.00,WeatherCatV1.15B25,2013-05-18 10:26:00,
2013-05-18 05:31:00,62.3,61.7,29.92,SSE,166,0.0,2.0,98,0.00,,,0.00,WeatherCatV1.15B25,2013-05-18 10:31:00,
2013-05-18 05:36:00,62.4,61.8,29.92,SSE,166,0.0,0.0,98,0.00,,,0.00,WeatherCatV1.15B25,2013-05-18 10:36:00,
2013-05-18 05:41:00,62.5,61.9,29.92,SSE,166,0.0,1.0,98,0.00,,,0.00,WeatherCatV1.15B25,2013-05-18 10:41:00,
2013-05-18 05:46:00,62.7,62.1,29.93,SSE,153,0.0,3.0,98,0.00,,,0.00,WeatherCatV1.15B25,2013-05-18 10:46:00,
2013-05-18 05:51:00,62.9,62.6,29.93,SE,130,0.0,2.0,99,0.00,,,0.00,WeatherCatV1.15B25,2013-05-18 10:51:00,
2013-05-18 05:56:00,63.1,62.8,29.93,SE,140,0.0,0.0,99,0.00,,,0.00,WeatherCatV1.15B25,2013-05-18 10:56:00,
2013-05-18 06:01:00,63.1,62.8,29.93,SE,132,0.0,1.0,99,0.00,,,0.00,WeatherCatV1.15B25,2013-05-18 11:01:00,
2013-05-18 06:06:00,63.2,62.9,29.93,SE,138,0.0,2.0,99,0.00,,,0.00,WeatherCatV1.15B25,2013-05-18 11:06:00,
2013-05-18 06:11:00,63.4,63.1,29.93,ESE,113,0.0,1.0,99,0.00,,,0.00,WeatherCatV1.15B25,2013-05-18 11:11:00,
2013-05-18 06:16:00,63.5,63.2,29.93,East,98,0.0,2.0,99,0.00,,,0.00,WeatherCatV1.15B25,2013-05-18 11:16:00,
2013-05-18 06:21:00,63.6,63.3,29.93,SE,126,0.0,3.0,99,0.00,,,0.00,WeatherCatV1.15B25,2013-05-18 11:21:00,
2013-05-18 06:26:00,63.7,63.4,29.94,SSE,154,1.0,3.0,99,0.00,,,0.00,WeatherCatV1.15B25,2013-05-18 11:26:00,
2013-05-18 06:31:00,63.7,63.4,29.94,ESE,118,0.0,3.0,99,0.00,,,0.00,WeatherCatV1.15B25,2013-05-18 11:31:00,
2013-05-18 06:36:00,63.7,63.4,29.94,ESE,119,0.0,3.0,99,0.00,,,0.00,WeatherCatV1.15B25,2013-05-18 11:36:00,
2013-05-18 06:41:00,63.7,63.4,29.94,SE,126,2.0,2.0,99,0.00,,,0.00,WeatherCatV1.15B25,2013-05-18 11:41:00,
2013-05-18 06:46:00,63.7,63.4,29.94,ESE,123,0.0,4.0,99,0.00,,,0.00,WeatherCatV1.15B25,2013-05-18 11:46:00,
2013-05-18 06:51:00,63.8,63.5,29.94,East,81,0.0,1.0,99,0.00,,,0.00,WeatherCatV1.15B25,2013-05-18 11:51:00,
2013-05-18 06:56:00,63.8,63.5,29.94,SE,142,1.0,1.0,99,0.00,,,0.00,WeatherCatV1.15B25,2013-05-18 11:56:00,
2013-05-18 07:01:00,63.9,63.6,29.94,ENE,73,0.0,1.0,99,0.00,,,0.00,WeatherCatV1.15B25,2013-05-18 12:01:00,
2013-05-18 07:06:00,64.1,63.8,29.94,ESE,111,0.0,1.0,99,0.00,,,0.00,WeatherCatV1.15B25,2013-05-18 12:06:00,
2013-05-18 07:11:00,64.4,64.1,29.94,SE,133,2.0,4.0,99,0.00,,,0.00,WeatherCatV1.15B25,2013-05-18 12:11:00,
2013-05-18 07:16:00,64.7,64.4,29.94,SSE,147,4.0,4.0,99,0.00,,,0.00,WeatherCatV1.15B25,2013-05-18 12:16:00,
2013-05-18 07:21:00,64.9,64.6,29.94,SE,142,0.0,4.0,99,0.00,,,0.00,WeatherCatV1.15B25,2013-05-18 12:21:00,
2013-05-18 07:26:00,65.0,64.7,29.94,SSE,159,2.0,4.0,99,0.00,,,0.00,WeatherCatV1.15B25,2013-05-18 12:26:00,
2013-05-18 07:31:00,65.2,64.9,29.94,ESE,120,3.0,4.0,99,0.00,,,0.00,WeatherCatV1.15B25,2013-05-18 12:31:00,
2013-05-18 07:36:00,65.4,65.1,29.94,ESE,104,4.0,6.0,99,0.00,,,0.00,WeatherCatV1.15B25,2013-05-18 12:36:00,
2013-05-18 07:41:00,65.5,65.2,29.94,SSE,156,2.0,5.0,99,0.00,,,0.00,WeatherCatV1.15B25,2013-05-18 12:41:00,
2013-05-18 07:46:00,65.7,65.4,29.94,SSE,165,3.0,4.0,99,0.00,,,0.00,WeatherCatV1.15B25,2013-05-18 12:46:00,
2013-05-18 07:51:00,66.1,65.8,29.94,SSE,158,1.0,5.0,99,0.00,,,0.00,WeatherCatV1.15B25,2013-05-18 12:51:00,
2013-05-18 07:56:00,66.2,65.9,29.94,ESE,119,3.0,4.0,99,0.00,,,0.00,WeatherCatV1.15B25,2013-05-18 12:56:00,
2013-05-18 08:01:00,66.3,66.0,29.94,SSE,160,2.0,4.0,99,0.00,,,0.00,WeatherCatV1.15B25,2013-05-18 13:01:00,
2013-05-18 08:06:00,66.5,66.2,29.94,SSE,151,0.0,2.0,99,0.00,,,0.00,WeatherCatV1.15B25,2013-05-18 13:06:00,
2013-05-18 08:11:00,66.6,66.3,29.94,SSE,161,4.0,7.0,99,0.00,,,0.00,WeatherCatV1.15B25,2013-05-18 13:11:00,
2013-05-18 08:16:00,66.7,66.4,29.94,SE,142,3.0,5.0,99,0.00,,,0.00,WeatherCatV1.15B25,2013-05-18 13:16:00,
2013-05-18 08:21:00,66.8,66.2,29.94,South,171,2.0,9.0,98,0.00,,,0.00,WeatherCatV1.15B25,2013-05-18 13:21:00,
2013-05-18 08:26:00,67.0,66.4,29.94,South,172,4.0,9.0,98,0.00,,,0.00,WeatherCatV1.15B25,2013-05-18 13:26:00,
2013-05-18 08:31:00,67.1,66.5,29.94,SSE,148,4.0,6.0,98,0.00,,,0.00,WeatherCatV1.15B25,2013-05-18 13:31:00,
2013-05-18 08:36:00,67.1,66.2,29.94,South,173,2.0,9.0,97,0.00,,,0.00,WeatherCatV1.15B25,2013-05-18 13:36:00,
2013-05-18 08:41:00,67.3,66.7,29.94,SE,141,8.0,9.0,98,0.00,,,0.00,WeatherCatV1.15B25,2013-05-18 13:41:00,
2013-05-18 08:46:00,67.5,66.6,29.94,South,184,8.0,8.0,97,0.00,,,0.00,WeatherCatV1.15B25,2013-05-18 13:46:00,
2013-05-18 08:51:00,67.6,66.7,29.94,SE,144,5.0,10.0,97,0.00,,,0.00,WeatherCatV1.15B25,2013-05-18 13:51:00,
2013-05-18 08:52:00,67.6,66.4,29.94,SSE,149,4.0,12.0,96,0.00,,,0.00,WeatherCatV1.15B25,2013-05-18 13:52:00,
2013-05-18 08:57:00,67.6,66.4,29.94,SSE,148,3.0,5.0,96,0.00,,,0.00,WeatherCatV1.15B25,2013-05-18 13:57:00,
2013-05-18 09:02:00,67.7,66.5,29.95,ESE,112,1.0,9.0,96,0.00,,,0.00,WeatherCatV1.15B25,2013-05-18 14:02:00,
2013-05-18 09:07:00,67.7,66.5,29.95,SE,144,4.0,6.0,96,0.00,,,0.00,WeatherCatV1.15B25,2013-05-18 14:07:00,
2013-05-18 09:12:00,67.8,66.6,29.94,SE,146,2.0,5.0,96,0.00,,,0.00,WeatherCatV1.15B25,2013-05-18 14:12:00,
2013-05-18 09:17:00,67.9,66.7,29.94,SE,133,1.0,9.0,96,0.00,,,0.00,WeatherCatV1.15B25,2013-05-18 14:17:00,
2013-05-18 09:22:00,68.0,66.8,29.94,SE,132,3.0,7.0,96,0.00,,,0.00,WeatherCatV1.15B25,2013-05-18 14:22:00,
2013-05-18 09:27:00,68.3,67.1,29.93,ESE,111,7.0,8.0,96,0.00,,,0.00,WeatherCatV1.15B25,2013-05-18 14:27:00,
2013-05-18 09:32:00,68.6,67.4,29.92,ESE,105,3.0,9.0,96,0.00,,,0.00,WeatherCatV1.15B25,2013-05-18 14:32:00,
2013-05-18 09:37:00,68.9,67.4,29.92,ESE,113,7.0,10.0,95,0.00,,,0.00,WeatherCatV1.15B25,2013-05-18 14:37:00,
2013-05-18 09:42:00,69.1,67.3,29.93,South,172,3.0,11.0,94,0.00,,,0.00,WeatherCatV1.15B25,2013-05-18 14:42:00,
2013-05-18 09:47:00,69.3,67.5,29.93,SE,133,8.0,11.0,94,0.00,,,0.00,WeatherCatV1.15B25,2013-05-18 14:47:00,
2013-05-18 09:52:00,69.5,67.7,29.93,SSE,155,5.0,10.0,94,0.00,,,0.00,WeatherCatV1.15B25,2013-05-18 14:52:00,
2013-05-18 09:57:00,69.6,67.8,29.93,South,178,2.0,10.0,94,0.00,,,0.00,WeatherCatV1.15B25,2013-05-18 14:57:00,
2013-05-18 10:02:00,69.9,67.8,29.93,SSE,157,7.0,9.0,93,0.00,,,0.00,WeatherCatV1.15B25,2013-05-18 15:02:00,
2013-05-18 10:07:00,70.3,68.5,29.92,SSE,165,2.0,7.0,94,0.00,,,0.00,WeatherCatV1.15B25,2013-05-18 15:07:00,
2013-05-18 10:12:00,70.6,68.5,29.92,South,176,7.0,10.0,93,0.00,,,0.00,WeatherCatV1.15B25,2013-05-18 15:12:00,
2013-05-18 10:17:00,71.3,69.2,29.92,SE,134,4.0,10.0,93,0.00,,,0.00,WeatherCatV1.15B25,2013-05-18 15:17:00,
2013-05-18 10:22:00,71.9,69.8,29.92,SSE,148,5.0,7.0,93,0.00,,,0.00,WeatherCatV1.15B25,2013-05-18 15:22:00,
2013-05-18 10:27:00,72.3,69.5,29.92,SSE,151,5.0,11.0,91,0.00,,,0.00,WeatherCatV1.15B25,2013-05-18 15:27:00,
2013-05-18 10:32:00,72.4,69.6,29.93,SE,133,6.0,6.0,91,0.00,,,0.00,WeatherCatV1.15B25,2013-05-18 15:32:00,
2013-05-18 10:37:00,72.5,69.4,29.93,SE,133,4.0,7.0,90,0.00,,,0.00,WeatherCatV1.15B25,2013-05-18 15:37:00,
2013-05-18 10:42:00,72.4,69.3,29.93,SW,215,7.0,10.0,90,0.00,,,0.00,WeatherCatV1.15B25,2013-05-18 15:42:00,
2013-05-18 10:47:00,72.3,69.2,29.93,SSE,161,5.0,8.0,90,0.00,,,0.00,WeatherCatV1.15B25,2013-05-18 15:47:00,
2013-05-18 10:52:00,72.3,69.2,29.93,SSE,155,6.0,8.0,90,0.00,,,0.00,WeatherCatV1.15B25,2013-05-18 15:52:00,
2013-05-18 10:57:00,72.1,69.0,29.93,SE,133,5.0,9.0,90,0.00,,,0.00,WeatherCatV1.15B25,2013-05-18 15:57:00,
2013-05-18 11:02:00,72.1,69.0,29.93,South,181,1.0,9.0,90,0.00,,,0.00,WeatherCatV1.15B25,2013-05-18 16:02:00,
2013-05-18 11:07:00,72.1,69.3,29.93,SSE,160,4.0,6.0,91,0.00,,,0.00,WeatherCatV1.15B25,2013-05-18 16:07:00,
2013-05-18 11:12:00,72.2,69.1,29.93,SSE,147,6.0,9.0,90,0.00,,,0.00,WeatherCatV1.15B25,2013-05-18 16:12:00,
2013-05-18 11:17:00,72.3,69.5,29.93,ESE,102,4.0,9.0,91,0.00,,,0.00,WeatherCatV1.15B25,2013-05-18 16:17:00,
2013-05-18 11:22:00,72.4,69.3,29.93,South,175,8.0,9.0,90,0.00,,,0.00,WeatherCatV1.15B25,2013-05-18 16:22:00,
2013-05-18 11:27:00,72.5,69.4,29.92,SSE,159,2.0,6.0,90,0.00,,,0.00,WeatherCatV1.15B25,2013-05-18 16:27:00,
2013-05-18 11:32:00,73.0,70.2,29.92,SE,133,8.0,8.0,91,0.00,,,0.00,WeatherCatV1.15B25,2013-05-18 16:32:00,
2013-05-18 11:37:00,73.6,70.1,29.92,SW,217,4.0,13.0,89,0.00,,,0.00,WeatherCatV1.15B25,2013-05-18 16:37:00,
2013-05-18 11:42:00,74.1,70.3,29.92,SSE,148,9.0,11.0,88,0.00,,,0.00,WeatherCatV1.15B25,2013-05-18 16:42:00,
2013-05-18 11:47:00,74.4,70.3,29.92,SSW,198,6.0,7.0,87,0.00,,,0.00,WeatherCatV1.15B25,2013-05-18 16:47:00,
2013-05-18 11:52:00,74.8,70.7,29.93,SE,127,4.0,10.0,87,0.00,,,0.00,WeatherCatV1.15B25,2013-05-18 16:52:00,
2013-05-18 11:57:00,75.2,70.7,29.93,ESE,113,3.0,10.0,86,0.00,,,0.00,WeatherCatV1.15B25,2013-05-18 16:57:00,
2013-05-18 12:02:00,75.4,70.9,29.93,South,190,6.0,9.0,86,0.00,,,0.00,WeatherCatV1.15B25,2013-05-18 17:02:00,
2013-05-18 12:07:00,75.9,71.4,29.93,South,187,2.0,9.0,86,0.00,,,0.00,WeatherCatV1.15B25,2013-05-18 17:07:00,
2013-05-18 12:12:00,76.3,71.1,29.92,ESE,121,8.0,9.0,84,0.00,,,0.00,WeatherCatV1.15B25,2013-05-18 17:12:00,
2013-05-18 12:17:00,76.8,72.3,29.92,SW,216,4.0,9.0,86,0.00,,,0.00,WeatherCatV1.15B25,2013-05-18 17:17:00,
2013-05-18 12:22:00,77.2,71.3,29.92,SE,141,8.0,9.0,82,0.00,,,0.00,WeatherCatV1.15B25,2013-05-18 17:22:00,
2013-05-18 12:27:00,77.4,72.2,29.92,SE,137,2.0,8.0,84,0.00,,,0.00,WeatherCatV1.15B25,2013-05-18 17:27:00,
2013-05-18 12:32:00,77.2,70.9,29.91,South,190,2.0,9.0,81,0.00,,,0.00,WeatherCatV1.15B25,2013-05-18 17:32:00,
2013-05-18 12:37:00,77.5,71.2,29.91,ESE,105,3.0,11.0,81,0.00,,,0.00,WeatherCatV1.15B25,2013-05-18 17:37:00,
2013-05-18 12:42:00,78.0,71.7,29.90,SSE,154,6.0,10.0,81,0.00,,,0.00,WeatherCatV1.15B25,2013-05-18 17:42:00,
2013-05-18 12:47:00,78.3,72.0,29.90,SW,234,3.0,10.0,81,0.00,,,0.00,WeatherCatV1.15B25,2013-05-18 17:47:00,
2013-05-18 12:52:00,78.6,72.3,29.90,SSW,193,7.0,13.0,81,0.00,,,0.00,WeatherCatV1.15B25,2013-05-18 17:52:00,
2013-05-18 12:57:00,78.8,72.8,29.89,SSW,194,6.0,7.0,82,0.00,,,0.00,WeatherCatV1.15B25,2013-05-18 17:57:00,
2013-05-18 13:02:00,78.9,71.8,29.89,SE,129,7.0,10.0,79,0.00,,,0.00,WeatherCatV1.15B25,2013-05-18 18:02:00,
2013-05-18 13:07:00,78.9,71.4,29.89,SSE,155,4.0,11.0,78,0.00,,,0.00,WeatherCatV1.15B25,2013-05-18 18:07:00,
2013-05-18 13:12:00,79.0,71.5,29.89,SE,129,7.0,10.0,78,0.00,,,0.00,WeatherCatV1.15B25,2013-05-18 18:12:00,
2013-05-18 13:17:00,78.9,72.2,29.88,South,173,8.0,8.0,80,0.00,,,0.00,WeatherCatV1.15B25,2013-05-18 18:17:00,
2013-05-18 13:22:00,79.0,72.3,29.88,SSW,212,1.0,8.0,80,0.00,,,0.00,WeatherCatV1.15B25,2013-05-18 18:22:00,
2013-05-18 13:27:00,79.1,71.6,29.88,SSW,193,7.0,11.0,78,0.00,,,0.00,WeatherCatV1.15B25,2013-05-18 18:27:00,
2013-05-18 13:32:00,79.4,71.9,29.88,South,169,3.0,9.0,78,0.00,,,0.00,WeatherCatV1.15B25,2013-05-18 18:32:00,
2013-05-18 13:37:00,79.7,72.2,29.88,SE,145,5.0,11.0,78,0.00,,,0.00,WeatherCatV1.15B25,2013-05-18 18:37:00,
2013-05-18 13:42:00,79.7,72.6,29.87,SE,127,2.0,11.0,79,0.00,,,0.00,WeatherCatV1.15B25,2013-05-18 18:42:00,
2013-05-18 13:47:00,80.0,72.1,29.87,South,184,3.0,13.0,77,0.00,,,0.00,WeatherCatV1.15B25,2013-05-18 18:47:00,
2013-05-18 13:52:00,80.5,73.0,29.87,SE,141,5.0,11.0,78,0.00,,,0.00,WeatherCatV1.15B25,2013-05-18 18:52:00,
2013-05-18 13:57:00,80.6,72.7,29.87,SE,142,6.0,9.0,77,0.00,,,0.00,WeatherCatV1.15B25,2013-05-18 18:57:00,
2013-05-18 14:02:00,80.6,72.3,29.86,South,188,4.0,14.0,76,0.00,,,0.00,WeatherCatV1.15B25,2013-05-18 19:02:00,
2013-05-18 14:07:00,80.5,72.2,29.86,SSE,168,5.0,12.0,76,0.00,,,0.00,WeatherCatV1.15B25,2013-05-18 19:07:00,
2013-05-18 14:12:00,80.6,72.7,29.86,SE,132,5.0,8.0,77,0.00,,,0.00,WeatherCatV1.15B25,2013-05-18 19:12:00,
2013-05-18 14:17:00,80.7,73.2,29.86,SE,143,6.0,11.0,78,0.00,,,0.00,WeatherCatV1.15B25,2013-05-18 19:17:00,
2013-05-18 14:22:00,81.0,73.5,29.86,SW,234,7.0,10.0,78,0.00,,,0.00,WeatherCatV1.15B25,2013-05-18 19:22:00,
2013-05-18 14:27:00,81.4,73.5,29.87,South,170,9.0,9.0,77,0.00,,,0.00,WeatherCatV1.15B25,2013-05-18 19:27:00,
2013-05-18 14:32:00,81.6,72.9,29.86,SSE,150,9.0,12.0,75,0.00,,,0.00,WeatherCatV1.15B25,2013-05-18 19:32:00,
2013-05-18 14:37:00,81.1,72.4,29.87,SSE,161,3.0,9.0,75,0.00,,,0.00,WeatherCatV1.15B25,2013-05-18 19:37:00,
2013-05-18 14:42:00,80.5,72.2,29.87,SE,142,5.0,10.0,76,0.00,,,0.00,WeatherCatV1.15B25,2013-05-18 19:42:00,
2013-05-18 14:47:00,79.9,72.4,29.87,South,171,6.0,6.0,78,0.00,,,0.00,WeatherCatV1.15B25,2013-05-18 19:47:00,
2013-05-18 14:52:00,79.4,71.9,29.87,SSE,160,4.0,8.0,78,0.00,,,0.00,WeatherCatV1.15B25,2013-05-18 19:52:00,
2013-05-18 14:57:00,79.2,72.1,29.87,SSE,163,2.0,7.0,79,0.00,,,0.00,WeatherCatV1.15B25,2013-05-18 19:57:00,
2013-05-18 15:02:00,79.2,72.5,29.86,SE,139,5.0,5.0,80,0.00,,,0.00,WeatherCatV1.15B25,2013-05-18 20:02:00,
2013-05-18 15:07:00,79.3,72.2,29.86,SE,132,2.0,7.0,79,0.00,,,0.00,WeatherCatV1.15B25,2013-05-18 20:07:00,
2013-05-18 15:12:00,79.3,71.8,29.86,SSE,148,1.0,5.0,78,0.00,,,0.00,WeatherCatV1.15B25,2013-05-18 20:12:00,
2013-05-18 15:17:00,79.4,72.3,29.86,SE,139,3.0,4.0,79,0.00,,,0.00,WeatherCatV1.15B25,2013-05-18 20:17:00,
2013-05-18 15:22:00,79.3,71.8,29.86,SE,144,3.0,7.0,78,0.00,,,0.00,WeatherCatV1.15B25,2013-05-18 20:22:00,
2013-05-18 15:27:00,79.2,72.1,29.86,SE,143,5.0,7.0,79,0.00,,,0.00,WeatherCatV1.15B25,2013-05-18 20:27:00,
2013-05-18 15:32:00,79.1,72.4,29.86,SE,146,4.0,7.0,80,0.00,,,0.00,WeatherCatV1.15B25,2013-05-18 20:32:00,
2013-05-18 15:37:00,79.1,72.8,29.86,SSE,166,3.0,7.0,81,0.00,,,0.00,WeatherCatV1.15B25,2013-05-18 20:37:00,
2013-05-18 15:42:00,79.0,72.7,29.86,SW,235,0.0,5.0,81,0.00,,,0.00,WeatherCatV1.15B25,2013-05-18 20:42:00,
2013-05-18 15:47:00,79.0,72.3,29.86,SSE,159,6.0,9.0,80,0.00,,,0.00,WeatherCatV1.15B25,2013-05-18 20:47:00,
2013-05-18 15:52:00,79.1,72.4,29.86,SE,128,5.0,12.0,80,0.00,,,0.00,WeatherCatV1.15B25,2013-05-18 20:52:00,
2013-05-18 15:57:00,79.4,73.0,29.86,ESE,113,2.0,7.0,81,0.00,,,0.00,WeatherCatV1.15B25,2013-05-18 20:57:00,
2013-05-18 16:02:00,79.6,73.2,29.86,ESE,109,3.0,4.0,81,0.00,,,0.00,WeatherCatV1.15B25,2013-05-18 21:02:00,
2013-05-18 16:07:00,80.0,74.0,29.86,SE,134,6.0,8.0,82,0.00,,,0.00,WeatherCatV1.15B25,2013-05-18 21:07:00,
2013-05-18 16:12:00,80.5,74.1,29.85,SE,130,6.0,10.0,81,0.00,,,0.00,WeatherCatV1.15B25,2013-05-18 21:12:00,
2013-05-18 16:17:00,80.8,74.4,29.85,ESE,115,8.0,8.0,81,0.00,,,0.00,WeatherCatV1.15B25,2013-05-18 21:17:00,
2013-05-18 16:22:00,81.0,73.9,29.85,SSE,155,7.0,7.0,79,0.00,,,0.00,WeatherCatV1.15B25,2013-05-18 21:22:00,
2013-05-18 16:27:00,81.2,74.4,29.85,SE,137,3.0,9.0,80,0.00,,,0.00,WeatherCatV1.15B25,2013-05-18 21:27:00,
2013-05-18 16:32:00,81.5,74.0,29.85,SSW,194,2.0,9.0,78,0.00,,,0.00,WeatherCatV1.15B25,2013-05-18 21:32:00,
2013-05-18 16:37:00,81.7,73.8,29.84,SSE,151,6.0,9.0,77,0.00,,,0.00,WeatherCatV1.15B25,2013-05-18 21:37:00,
2013-05-18 16:42:00,81.8,74.6,29.85,ESE,105,1.0,10.0,79,0.00,,,0.00,WeatherCatV1.15B25,2013-05-18 21:42:00,
2013-05-18 16:47:00,81.8,74.2,29.85,South,178,5.0,9.0,78,0.00,,,0.00,WeatherCatV1.15B25,2013-05-18 21:47:00,
2013-05-18 16:52:00,81.3,73.8,29.85,ESE,123,9.0,9.0,78,0.00,,,0.00,WeatherCatV1.15B25,2013-05-18 21:52:00,
2013-05-18 16:57:00,80.5,73.0,29.85,ESE,105,5.0,11.0,78,0.00,,,0.00,WeatherCatV1.15B25,2013-05-18 21:57:00,
2013-05-18 17:02:00,79.8,73.1,29.85,South,175,5.0,10.0,80,0.00,,,0.00,WeatherCatV1.15B25,2013-05-18 22:02:00,
2013-05-18 17:07:00,79.5,73.1,29.85,ESE,106,5.0,7.0,81,0.00,,,0.00,WeatherCatV1.15B25,2013-05-18 22:07:00,
2013-05-18 17:12:00,79.5,73.1,29.85,SSE,159,7.0,10.0,81,0.00,,,0.00,WeatherCatV1.15B25,2013-05-18 22:12:00,
2013-05-18 17:17:00,79.7,73.7,29.85,SSE,161,4.0,10.0,82,0.00,,,0.00,WeatherCatV1.15B25,2013-05-18 22:17:00,
2013-05-18 17:22:00,79.7,73.3,29.85,SSE,149,5.0,9.0,81,0.00,,,0.00,WeatherCatV1.15B25,2013-05-18 22:22:00,
2013-05-18 17:27:00,79.6,73.2,29.84,SE,134,7.0,14.0,81,0.00,,,0.00,WeatherCatV1.15B25,2013-05-18 22:27:00,
2013-05-18 17:32:00,79.6,73.6,29.84,SSE,154,4.0,7.0,82,0.00,,,0.00,WeatherCatV1.15B25,2013-05-18 22:32:00,
2013-05-18 17:37:00,79.6,73.6,29.84,SE,134,9.0,12.0,82,0.00,,,0.00,WeatherCatV1.15B25,2013-05-18 22:37:00,
2013-05-18 17:40:00,79.5,73.1,29.84,SSE,149,5.0,11.0,81,0.00,,,0.00,WeatherCatV1.15B25,2013-05-18 22:40:00,
2013-05-18 17:45:00,79.4,73.8,29.84,SSE,150,5.0,10.0,83,0.00,,,0.00,WeatherCatV1.15B25,2013-05-18 22:45:00,
2013-05-18 17:50:00,79.4,73.4,29.84,SSE,153,5.0,9.0,82,0.00,,,0.00,WeatherCatV1.15B25,2013-05-18 22:50:00,
2013-05-18 17:55:00,79.4,73.4,29.84,SSE,148,6.0,7.0,82,0.00,,,0.00,WeatherCatV1.15B25,2013-05-18 22:55:00,
2013-05-18 18:00:00,79.2,72.8,29.84,SSE,163,7.0,11.0,81,0.00,,,0.00,WeatherCatV1.15B25,2013-05-18 23:00:00,
2013-05-18 18:05:00,79.0,73.4,29.84,SSE,152,5.0,5.0,83,0.00,,,0.00,WeatherCatV1.15B25,2013-05-18 23:05:00,
2013-05-18 18:10:00,78.8,72.8,29.84,SSE,163,4.0,6.0,82,0.00,,,0.00,WeatherCatV1.15B25,2013-05-18 23:10:00,
2013-05-18 18:15:00,78.4,72.8,29.84,SSE,160,4.0,10.0,83,0.00,,,0.00,WeatherCatV1.15B25,2013-05-18 23:15:00,
2013-05-18 18:20:00,78.2,73.0,29.84,SSE,156,4.0,4.0,84,0.00,,,0.00,WeatherCatV1.15B25,2013-05-18 23:20:00,
2013-05-18 18:34:00,78.1,72.9,29.84,SSE,160,3.0,6.0,84,0.00,,,0.00,WeatherCatV1.15B25,2013-05-18 23:34:00,
2013-05-18 18:39:00,77.9,72.7,29.84,ESE,120,2.0,5.0,84,0.00,,,0.00,WeatherCatV1.15B25,2013-05-18 23:39:00,
2013-05-18 18:44:00,77.7,72.5,29.84,South,172,4.0,8.0,84,0.00,,,0.00,WeatherCatV1.15B25,2013-05-18 23:44:00,
2013-05-18 18:49:00,77.6,72.4,29.84,SSE,152,4.0,6.0,84,0.00,,,0.00,WeatherCatV1.15B25,2013-05-18 23:49:00,
2013-05-18 18:54:00,77.5,72.3,29.84,South,174,1.0,8.0,84,0.00,,,0.00,WeatherCatV1.15B25,2013-05-18 23:54:00,
2013-05-18 18:59:00,77.4,72.2,29.84,SSW,205,3.0,8.0,84,0.00,,,0.00,WeatherCatV1.15B25,2013-05-18 23:59:00,
2013-05-18 19:04:00,77.3,72.1,29.84,SSE,150,1.0,6.0,84,0.00,,,0.00,WeatherCatV1.15B25,2013-05-19 00:04:00,
2013-05-18 19:09:00,77.2,72.0,29.84,SSE,156,4.0,8.0,84,0.00,,,0.00,WeatherCatV1.15B25,2013-05-19 00:09:00,
2013-05-18 19:14:00,77.1,71.9,29.83,South,176,2.0,4.0,84,0.00,,,0.00,WeatherCatV1.15B25,2013-05-19 00:14:00,
2013-05-18 19:19:00,76.9,71.7,29.83,South,187,0.0,7.0,84,0.00,,,0.00,WeatherCatV1.15B25,2013-05-19 00:19:00,
2013-05-18 19:24:00,76.8,71.2,29.83,ESE,123,4.0,8.0,83,0.00,,,0.00,WeatherCatV1.15B25,2013-05-19 00:24:00,
2013-05-18 19:29:00,76.6,71.4,29.84,SW,221,1.0,5.0,84,0.00,,,0.00,WeatherCatV1.15B25,2013-05-19 00:29:00,
2013-05-18 19:34:00,76.4,71.2,29.84,SSW,195,1.0,4.0,84,0.00,,,0.00,WeatherCatV1.15B25,2013-05-19 00:34:00,
2013-05-18 19:39:00,76.3,71.1,29.84,SSE,156,1.0,4.0,84,0.00,,,0.00,WeatherCatV1.15B25,2013-05-19 00:39:00,
2013-05-18 19:44:00,76.1,71.2,29.84,South,188,3.0,9.0,85,0.00,,,0.00,WeatherCatV1.15B25,2013-05-19 00:44:00,
2013-05-18 19:49:00,75.8,71.0,29.84,South,171,1.0,7.0,85,0.00,,,0.00,WeatherCatV1.15B25,2013-05-19 00:49:00,
2013-05-18 19:54:00,75.7,71.2,29.84,SE,146,2.0,3.0,86,0.00,,,0.00,WeatherCatV1.15B25,2013-05-19 00:54:00,
2013-05-18 19:59:00,75.4,70.9,29.83,SE,146,8.0,9.0,86,0.00,,,0.00,WeatherCatV1.15B25,2013-05-19 00:59:00,
2013-05-18 20:04:00,75.1,71.0,29.83,SE,142,3.0,7.0,87,0.00,,,0.00,WeatherCatV1.15B25,2013-05-19 01:04:00,
2013-05-18 20:09:00,74.9,70.8,29.83,East,93,2.0,4.0,87,0.00,,,0.00,WeatherCatV1.15B25,2013-05-19 01:09:00,
2013-05-18 20:14:00,74.8,71.0,29.83,SE,137,2.0,7.0,88,0.00,,,0.00,WeatherCatV1.15B25,2013-05-19 01:14:00,
2013-05-18 20:19:00,74.6,70.8,29.83,SE,130,3.0,4.0,88,0.00,,,0.00,WeatherCatV1.15B25,2013-05-19 01:19:00,
2013-05-18 20:24:00,74.4,70.6,29.84,SE,140,3.0,3.0,88,0.00,,,0.00,WeatherCatV1.15B25,2013-05-19 01:24:00,
2013-05-18 20:29:00,74.2,70.7,29.83,SE,142,2.0,5.0,89,0.00,,,0.00,WeatherCatV1.15B25,2013-05-19 01:29:00,
2013-05-18 20:34:00,74.0,70.5,29.83,South,190,1.0,4.0,89,0.00,,,0.00,WeatherCatV1.15B25,2013-05-19 01:34:00,
2013-05-18 20:39:00,73.8,70.7,29.83,SE,129,4.0,4.0,90,0.00,,,0.00,WeatherCatV1.15B25,2013-05-19 01:39:00,
2013-05-18 20:44:00,73.6,70.5,29.83,SSW,203,2.0,6.0,90,0.00,,,0.00,WeatherCatV1.15B25,2013-05-19 01:44:00,
2013-05-18 20:49:00,73.5,70.7,29.83,SSE,149,3.0,11.0,91,0.00,,,0.00,WeatherCatV1.15B25,2013-05-19 01:49:00,
2013-05-18 20:54:00,73.4,70.6,29.82,SE,143,5.0,7.0,91,0.00,,,0.00,WeatherCatV1.15B25,2013-05-19 01:54:00,
2013-05-18 20:59:00,73.4,70.6,29.82,SE,145,2.0,10.0,91,0.00,,,0.00,WeatherCatV1.15B25,2013-05-19 01:59:00,
2013-05-18 21:04:00,73.3,70.5,29.82,South,186,4.0,8.0,91,0.00,,,0.00,WeatherCatV1.15B25,2013-05-19 02:04:00,
2013-05-18 21:09:00,73.3,70.5,29.82,SE,134,2.0,7.0,91,0.00,,,0.00,WeatherCatV1.15B25,2013-05-19 02:09:00,
2013-05-18 21:14:00,73.2,70.4,29.83,South,176,3.0,11.0,91,0.00,,,0.00,WeatherCatV1.15B25,2013-05-19 02:14:00,
2013-05-18 21:19:00,73.1,70.3,29.83,SSE,148,4.0,9.0,91,0.00,,,0.00,WeatherCatV1.15B25,2013-05-19 02:19:00,
2013-05-18 21:24:00,73.1,70.3,29.83,SE,132,3.0,7.0,91,0.00,,,0.00,WeatherCatV1.15B25,2013-05-19 02:24:00,
2013-05-18 21:29:00,73.0,70.2,29.83,South,188,1.0,6.0,91,0.00,,,0.00,WeatherCatV1.15B25,2013-05-19 02:29:00,
2013-05-18 21:34:00,73.0,70.2,29.83,South,174,7.0,11.0,91,0.00,,,0.00,WeatherCatV1.15B25,2013-05-19 02:34:00,
2013-05-18 21:39:00,72.9,70.1,29.83,SSE,166,5.0,8.0,91,0.00,,,0.00,WeatherCatV1.15B25,2013-05-19 02:39:00,
2013-05-18 21:44:00,72.9,70.1,29.83,South,184,6.0,9.0,91,0.00,,,0.00,WeatherCatV1.15B25,2013-05-19 02:44:00,
2013-05-18 21:49:00,72.9,70.1,29.83,SSE,161,7.0,13.0,91,0.00,,,0.00,WeatherCatV1.15B25,2013-05-19 02:49:00,
2013-05-18 21:54:00,72.9,70.1,29.83,SSE,152,5.0,7.0,91,0.00,,,0.00,WeatherCatV1.15B25,2013-05-19 02:54:00,
2013-05-18 21:59:00,72.8,70.0,29.83,ESE,109,11.0,11.0,91,0.00,,,0.00,WeatherCatV1.15B25,2013-05-19 02:59:00,
2013-05-18 22:04:00,72.8,70.0,29.82,SE,142,7.0,7.0,91,0.00,,,0.00,WeatherCatV1.15B25,2013-05-19 03:04:00,
2013-05-18 22:09:00,72.6,69.8,29.82,South,189,3.0,6.0,91,0.00,,,0.00,WeatherCatV1.15B25,2013-05-19 03:09:00,
2013-05-18 22:14:00,72.4,69.6,29.83,SE,125,6.0,6.0,91,0.00,,,0.00,WeatherCatV1.15B25,2013-05-19 03:14:00,
2013-05-18 22:19:00,72.2,69.7,29.82,SSW,203,4.0,6.0,92,0.00,,,0.00,WeatherCatV1.15B25,2013-05-19 03:19:00,
2013-05-18 22:24:00,72.0,69.5,29.82,SSE,155,7.0,7.0,92,0.00,,,0.00,WeatherCatV1.15B25,2013-05-19 03:24:00,
2013-05-18 22:29:00,71.9,69.4,29.83,SSE,166,5.0,6.0,92,0.00,,,0.00,WeatherCatV1.15B25,2013-05-19 03:29:00,
2013-05-18 22:34:00,71.7,69.6,29.83,SE,141,3.0,7.0,93,0.00,,,0.00,WeatherCatV1.15B25,2013-05-19 03:34:00,
2013-05-18 22:39:00,71.6,69.5,29.83,SSE,165,6.0,8.0,93,0.00,,,0.00,WeatherCatV1.15B25,2013-05-19 03:39:00,
2013-05-18 22:44:00,71.4,69.6,29.84,SSE,168,2.0,7.0,94,0.00,,,0.00,WeatherCatV1.15B25,2013-05-19 03:44:00,
2013-05-18 22:49:00,71.3,69.2,29.84,SSE,167,0.0,5.0,93,0.00,,,0.00,WeatherCatV1.15B25,2013-05-19 03:49:00,
2013-05-18 22:54:00,71.3,69.5,29.84,South,171,2.0,3.0,94,0.00,,,0.00,WeatherCatV1.15B25,2013-05-19 03:54:00,
2013-05-18 22:55:00,71.3,69.5,29.84,ESE,121,0.0,3.0,94,0.00,,,0.00,WeatherCatV1.15B25,2013-05-19 03:55:00,
2013-05-18 23:00:00,71.2,69.4,29.84,SSW,192,5.0,6.0,94,0.00,,,0.00,WeatherCatV1.15B25,2013-05-19 04:00:00,
2013-05-18 23:01:00,71.2,69.4,29.84,ESE,112,3.0,6.0,94,0.00,,,0.00,WeatherCatV1.15B25,2013-05-19 04:01:00,
2013-05-18 23:06:00,71.1,69.3,29.83,SSE,153,3.0,7.0,94,0.00,,,0.00,WeatherCatV1.15B25,2013-05-19 04:06:00,
2013-05-18 23:11:00,71.0,69.5,29.83,SE,128,5.0,8.0,95,0.00,,,0.00,WeatherCatV1.15B25,2013-05-19 04:11:00,
2013-05-18 23:16:00,70.9,69.4,29.84,SE,144,2.0,5.0,95,0.00,,,0.00,WeatherCatV1.15B25,2013-05-19 04:16:00,
2013-05-18 23:21:00,70.9,69.4,29.84,SSE,163,2.0,6.0,95,0.00,,,0.00,WeatherCatV1.15B25,2013-05-19 04:21:00,
2013-05-18 23:26:00,70.8,69.3,29.84,SW,215,1.0,7.0,95,0.00,,,0.00,WeatherCatV1.15B25,2013-05-19 04:26:00,
2013-05-18 23:31:00,70.7,69.2,29.84,South,180,5.0,6.0,95,0.00,,,0.00,WeatherCatV1.15B25,2013-05-19 04:31:00,
2013-05-18 23:35:00,70.7,69.2,29.84,SSE,150,4.0,8.0,95,0.00,,,0.00,WeatherCatV1.15B25,2013-05-19 04:35:00,
2013-05-18 23:40:00,70.7,69.2,29.84,South,190,5.0,7.0,95,0.00,,,0.00,WeatherCatV1.15B25,2013-05-19 04:40:00,
2013-05-18 23:45:00,70.6,69.1,29.84,SSW,192,3.0,7.0,95,0.00,,,0.00,WeatherCatV1.15B25,2013-05-19 04:45:00,
2013-05-18 23:50:00,70.6,69.4,29.83,SE,136,2.0,6.0,96,0.00,,,0.00,WeatherCatV1.15B25,2013-05-19 04:50:00,
2013-05-18 23:55:00,70.5,69.3,29.84,SSW,210,4.0,6.0,96,0.00,,,0.00,WeatherCatV1.15B25,2013-05-19 04:55:00,